Home > Weather > Cadiz > Past weeks

Flag for Spain Weather for the Past 2 Weeks in Cadiz, Cádiz, Spain

Now
61 °F

Scattered clouds.


Feels Like: 61 °F
Forecast: 52 / 59 °F
Wind: 25 mph from West

Location: Rota Airport

Current Time: Feb 14, 2016 at 11:19:06 AM

Latest Report: Feb 14, 2016 at 11:00 AM


Visibility: 4 mi

Pressure: 29.98 "Hg

Humidity: 72%

Dew point: 52 °F

Location of CadizLocation

Historic Weather in Cadiz — Graph

°F

Cadiz Temperature Yesterday

Maximum temperature yesterday: 64 °F (at 3:00 PM)
Minimum temperature yesterday: 61 °F (at 12:00 AM)
Average temperature yesterday: 61 °F

High & Low Weather Summary for the Past Weeks

 TemperatureHumidityPressure
High70 °F (Feb 1, 2:00 PM)100% (Feb 2, 12:00 AM)30.60 "Hg (Feb 2, 12:00 AM)
Low45 °F (Jan 31, 7:00 AM)46% (Feb 2, 3:00 PM)29.95 "Hg (Feb 14, 7:00 AM)
Average58 °F82%30.30 "Hg
* Reported Jan 30 10:00 AM — Feb 14 10:00 AM, Cadiz, Weather by CustomWeather, © 2016

Note: Actual official high and low records may vary slightly from our data, if they occured in-between our weather recording intervals... More about our weather records

Advertising

Cadiz Weather History for the Previous 24 Hours

 ConditionsComfort  
Time TempWeatherWind HumidityBarometerVisibility
10:00 AM
Sun, Feb 14
61 °FScattered clouds.23 mph83%29.95 "Hg5 mi
9:45 AM61 °FScattered clouds.24 mph83%29.95 "Hg5 mi
9:00 AM61 °FPassing clouds.22 mph83%29.95 "Hg5 mi
8:00 AM61 °FClear.23 mph83%29.95 "Hg5 mi
7:00 AM61 °FClear.16 mph83%29.95 "Hg6 mi
6:00 AM61 °FPassing clouds.16 mph88%29.98 "Hg6 mi
5:00 AM61 °FPassing clouds.13 mph88%29.98 "Hg5 mi
4:00 AM61 °FPartly cloudy.16 mph88%30.01 "Hg5 mi
3:00 AM61 °FPartly cloudy.18 mph94%30.01 "Hg5 mi
2:00 AM61 °FPartly cloudy.20 mph94%30.01 "Hg5 mi
1:00 AM59 °FPartly cloudy.22 mph100%30.04 "Hg5 mi
12:00 AM61 °FDrizzle. Mostly cloudy.20 mph88%30.07 "Hg5 mi
11:00 PM
Sat, Feb 13
61 °FDrizzle. Mostly cloudy.20 mph88%30.07 "Hg5 mi
10:00 PM61 °FOvercast.17 mph88%30.09 "Hg5 mi
9:00 PM61 °FPartly cloudy.21 mph88%30.09 "Hg5 mi
8:00 PM61 °FPartly cloudy.18 mph94%30.09 "Hg5 mi
7:00 PM61 °FDrizzle. Broken clouds.18 mph94%30.09 "Hg5 mi
6:00 PM61 °FBroken clouds.16 mph94%30.07 "HgN/A
5:00 PM63 °FPartly sunny.20 mph88%30.09 "HgN/A
4:00 PM63 °FPartly sunny.18 mph83%30.07 "HgN/A
3:00 PM64 °FPartly sunny.16 mph83%30.09 "HgN/A
2:00 PM63 °FOvercast.15 mph83%30.12 "HgN/A
1:00 PM63 °FPartly sunny.17 mph83%30.12 "HgN/A
12:00 PM63 °FPartly sunny.15 mph83%30.15 "HgN/A
11:00 AM63 °FPartly sunny.15 mph83%30.12 "HgN/A
Weather by CustomWeather, © 2016

See weather overviewHow to use our weather pages